Location: Austin
(30.3000°N, 97.7500°W)
Time: 21:23:47
(UTC-06:00)

Cosmos 2058 - Pass Details

Date: 03 December 2025
Orbit: 529 x 541 km, 82.5° (Epoch: 07 December)

Event Time Altitude Azimuth Distance (km) Brightness Sun altitude
Rises 05:37:45 0° 196° (SSW) 2,659 6.3 -19.9°
Reaches altitude 10° 05:39:55 10° 201° (SSW) 1,775 5.3 -19.4°
Maximum altitude 05:43:43 51° 277° (W) 680 2.8 -18.6°
Drops below altitude 10° 05:47:34 10° 354° (N) 1,793 5.2 -17.8°
Sets 05:49:46 0° 0° (N) 2,690 6.2 -17.4°
